Location: Champaign/Urbana Astronomical Society Observatory
(40.0333°N, 88.2833°W)
Time: 20:33:38
(UTC-05:00)

OTV 5 (USA 277) - Visible Passes

Search period start: 19 October 2019 00:00
Search period end: 29 October 2019 00:00
Orbit: 310 x 324 km, 54.5° (Epoch: 17 October)

Date Brightness Start Highest point End Pass type
(mag) Time Alt. Az. Time Alt. Az. Time Alt. Az.
19 Oct ? 05:54:04 22° NNW 05:55:32 51° NE 05:58:12 10° ESE visible
20 Oct ? 06:08:43 24° WNW 06:10:03 46° SW 06:12:41 10° SSE visible
21 Oct ? 04:52:34 12° E 04:52:34 12° E 04:52:47 10° ESE visible
21 Oct ? 06:23:30 14° WSW 06:24:26 16° SW 06:26:12 10° SSW visible
22 Oct ? 05:07:29 11° SE 05:07:29 11° SE 05:07:38 10° SE visible
26 Oct ? 19:12:04 10° S 19:12:58 15° SSE 19:12:58 15° SSE visible
27 Oct ? 19:25:41 10° SSW 19:27:43 40° S 19:27:43 40° S visible
28 Oct ? 19:40:13 10° WSW 19:42:19 39° WNW 19:42:19 39° WNW visible
